Time,TemperatureF,DewpointF,PressureIn,WindDirection,WindDirectionDegrees,WindSpeedMPH,WindSpeedGustMPH,Humidity,HourlyPrecipIn,Conditions,Clouds,dailyrainin,SoftwareType,DateUTC
2013-07-07 00:03:00,69.9,68.0,29.88,SSW,206,0.0,1.0,92,0.00,,,0.00,weatherlink.com 1.10,2013-07-07 04:03:00,
2013-07-07 00:18:00,69.5,68.0,29.88,SSW,206,0.0,0.0,93,0.00,,,0.00,weatherlink.com 1.10,2013-07-07 04:18:00,
2013-07-07 00:33:00,69.3,68.0,29.88,SSW,206,0.0,0.0,94,0.00,,,0.00,weatherlink.com 1.10,2013-07-07 04:33:00,
2013-07-07 00:48:00,69.1,67.0,29.87,SSW,206,0.0,0.0,94,0.00,,,0.00,weatherlink.com 1.10,2013-07-07 04:48:00,
2013-07-07 01:03:00,69.0,68.0,29.88,SSW,206,2.0,2.0,95,0.00,,,0.00,weatherlink.com 1.10,2013-07-07 05:03:00,
2013-07-07 01:18:00,69.0,68.0,29.88,SE,146,2.0,4.0,95,0.00,,,0.00,weatherlink.com 1.10,2013-07-07 05:18:00,
2013-07-07 01:33:00,69.1,68.0,29.87,SSW,206,1.0,4.0,95,0.00,,,0.00,weatherlink.com 1.10,2013-07-07 05:33:00,
2013-07-07 01:48:00,69.1,68.0,29.88,SW,229,1.0,4.0,95,0.00,,,0.00,weatherlink.com 1.10,2013-07-07 05:48:00,
2013-07-07 02:03:00,69.1,68.0,29.87,SSW,210,1.0,2.0,95,0.00,,,0.00,weatherlink.com 1.10,2013-07-07 06:03:00,
2013-07-07 02:18:00,69.1,68.0,29.87,SSE,168,1.0,4.0,95,0.00,,,0.00,weatherlink.com 1.10,2013-07-07 06:18:00,
2013-07-07 02:33:00,69.1,68.0,29.87,SSE,161,2.0,5.0,95,0.00,,,0.00,weatherlink.com 1.10,2013-07-07 06:33:00,
2013-07-07 02:48:00,69.0,68.0,29.87,SW,229,4.0,7.0,95,0.00,,,0.00,weatherlink.com 1.10,2013-07-07 06:48:00,
2013-07-07 03:03:00,68.6,67.0,29.86,WSW,241,3.0,7.0,95,0.03,,,0.03,weatherlink.com 1.10,2013-07-07 07:03:00,
2013-07-07 03:18:00,67.9,67.0,29.87,SW,232,0.0,4.0,96,0.19,,,0.19,weatherlink.com 1.10,2013-07-07 07:18:00,
2013-07-07 03:33:00,67.7,67.0,29.87,SSW,193,2.0,3.0,96,0.27,,,0.27,weatherlink.com 1.10,2013-07-07 07:33:00,
2013-07-07 03:48:00,67.5,67.0,29.87,SSW,209,3.0,4.0,97,0.32,,,0.32,weatherlink.com 1.10,2013-07-07 07:48:00,
2013-07-07 04:03:00,67.2,66.0,29.87,SSE,148,2.0,4.0,97,0.35,,,0.38,weatherlink.com 1.10,2013-07-07 08:03:00,
2013-07-07 04:18:00,67.1,66.0,29.87,SSE,148,0.0,2.0,97,0.21,,,0.40,weatherlink.com 1.10,2013-07-07 08:18:00,
2013-07-07 04:33:00,67.1,66.0,29.87,SSE,148,1.0,3.0,97,0.15,,,0.42,weatherlink.com 1.10,2013-07-07 08:33:00,
2013-07-07 04:49:00,67.2,67.0,29.86,SSE,148,1.0,3.0,98,0.10,,,0.42,weatherlink.com 1.10,2013-07-07 08:49:00,
2013-07-07 05:04:00,67.2,67.0,29.86,SSE,148,0.0,3.0,98,0.04,,,0.42,weatherlink.com 1.10,2013-07-07 09:04:00,
2013-07-07 05:19:00,67.2,67.0,29.86,SSE,148,1.0,2.0,98,0.02,,,0.42,weatherlink.com 1.10,2013-07-07 09:19:00,
2013-07-07 05:34:00,67.1,67.0,29.86,South,189,2.0,3.0,98,0.01,,,0.43,weatherlink.com 1.10,2013-07-07 09:34:00,
2013-07-07 05:49:00,67.1,67.0,29.86,South,189,1.0,3.0,98,0.01,,,0.43,weatherlink.com 1.10,2013-07-07 09:49:00,
2013-07-07 06:04:00,67.1,67.0,29.86,South,171,0.0,2.0,98,0.02,,,0.44,weatherlink.com 1.10,2013-07-07 10:04:00,
2013-07-07 06:19:00,67.1,67.0,29.86,South,171,0.0,3.0,98,0.02,,,0.44,weatherlink.com 1.10,2013-07-07 10:19:00,
2013-07-07 06:34:00,67.1,67.0,29.86,South,171,0.0,0.0,98,0.01,,,0.44,weatherlink.com 1.10,2013-07-07 10:34:00,
2013-07-07 06:49:00,67.1,67.0,29.87,South,171,0.0,1.0,98,0.01,,,0.44,weatherlink.com 1.10,2013-07-07 10:49:00,
2013-07-07 07:04:00,67.2,67.0,29.87,South,171,2.0,2.0,98,0.00,,,0.44,weatherlink.com 1.10,2013-07-07 11:04:00,
2013-07-07 07:19:00,67.2,67.0,29.87,SW,219,2.0,4.0,98,0.00,,,0.44,weatherlink.com 1.10,2013-07-07 11:19:00,
2013-07-07 07:34:00,67.2,67.0,29.87,South,190,0.0,4.0,98,0.00,,,0.44,weatherlink.com 1.10,2013-07-07 11:34:00,
2013-07-07 07:49:00,67.2,67.0,29.88,SSW,193,3.0,4.0,98,0.00,,,0.44,weatherlink.com 1.10,2013-07-07 11:49:00,
2013-07-07 08:04:00,67.2,67.0,29.88,SSE,157,3.0,4.0,98,0.00,,,0.44,weatherlink.com 1.10,2013-07-07 12:04:00,
2013-07-07 08:19:00,67.3,67.0,29.89,South,171,3.0,5.0,98,0.00,,,0.44,weatherlink.com 1.10,2013-07-07 12:19:00,
2013-07-07 08:34:00,67.5,67.0,29.89,South,173,1.0,5.0,98,0.00,,,0.44,weatherlink.com 1.10,2013-07-07 12:34:00,
2013-07-07 08:49:00,67.6,67.0,29.89,NNE,27,0.0,4.0,98,0.00,,,0.44,weatherlink.com 1.10,2013-07-07 12:49:00,
2013-07-07 09:04:00,67.8,67.0,29.89,SSE,157,0.0,5.0,98,0.00,,,0.44,weatherlink.com 1.10,2013-07-07 13:04:00,
2013-07-07 09:19:00,68.3,68.0,29.89,South,173,1.0,5.0,98,0.00,,,0.44,weatherlink.com 1.10,2013-07-07 13:19:00,
2013-07-07 09:34:00,69.1,69.0,29.89,WSW,240,0.0,3.0,98,0.00,,,0.44,weatherlink.com 1.10,2013-07-07 13:34:00,
2013-07-07 09:49:00,70.1,69.0,29.89,WSW,240,2.0,4.0,97,0.00,,,0.44,weatherlink.com 1.10,2013-07-07 13:49:00,
2013-07-07 10:04:00,70.9,69.0,29.89,West,263,2.0,6.0,94,0.00,,,0.44,weatherlink.com 1.10,2013-07-07 14:04:00,
2013-07-07 10:19:00,71.4,70.0,29.89,SSW,205,2.0,5.0,94,0.00,,,0.44,weatherlink.com 1.10,2013-07-07 14:19:00,
2013-07-07 10:34:00,71.7,70.0,29.88,SSW,194,2.0,3.0,93,0.00,,,0.44,weatherlink.com 1.10,2013-07-07 14:34:00,
2013-07-07 10:49:00,73.2,71.0,29.88,South,174,1.0,6.0,91,0.00,,,0.44,weatherlink.com 1.10,2013-07-07 14:49:00,
2013-07-07 11:04:00,74.0,71.0,29.88,SW,234,1.0,5.0,89,0.00,,,0.44,weatherlink.com 1.10,2013-07-07 15:04:00,
2013-07-07 11:19:00,74.6,71.0,29.88,SSE,167,4.0,7.0,88,0.00,,,0.44,weatherlink.com 1.10,2013-07-07 15:19:00,
2013-07-07 11:34:00,74.6,71.0,29.89,SSE,153,1.0,8.0,88,0.00,,,0.44,weatherlink.com 1.10,2013-07-07 15:34:00,
2013-07-07 11:49:00,74.6,71.0,29.89,SSE,159,6.0,6.0,87,0.00,,,0.44,weatherlink.com 1.10,2013-07-07 15:49:00,
2013-07-07 12:04:00,75.6,72.0,29.89,SSW,212,3.0,7.0,87,0.00,,,0.44,weatherlink.com 1.10,2013-07-07 16:04:00,
2013-07-07 12:19:00,76.1,72.0,29.88,SSW,201,4.0,7.0,88,0.00,,,0.44,weatherlink.com 1.10,2013-07-07 16:19:00,
2013-07-07 12:34:00,77.0,72.0,29.88,SSE,167,2.0,6.0,83,0.00,,,0.44,weatherlink.com 1.10,2013-07-07 16:34:00,
2013-07-07 12:49:00,77.2,72.0,29.88,SSW,211,3.0,7.0,83,0.00,,,0.44,weatherlink.com 1.10,2013-07-07 16:49:00,
2013-07-07 13:04:00,78.4,73.0,29.87,South,188,0.0,7.0,82,0.00,,,0.44,weatherlink.com 1.10,2013-07-07 17:04:00,
2013-07-07 13:19:00,78.0,71.0,29.87,SSE,150,5.0,7.0,80,0.00,,,0.44,weatherlink.com 1.10,2013-07-07 17:19:00,
2013-07-07 13:34:00,78.4,72.0,29.87,South,177,1.0,7.0,80,0.00,,,0.44,weatherlink.com 1.10,2013-07-07 17:34:00,
2013-07-07 13:49:00,78.7,71.0,29.86,SSE,149,4.0,6.0,77,0.00,,,0.44,weatherlink.com 1.10,2013-07-07 17:49:00,
2013-07-07 14:04:00,79.3,71.0,29.85,SW,232,1.0,8.0,75,0.00,,,0.44,weatherlink.com 1.10,2013-07-07 18:04:00,
2013-07-07 14:19:00,79.8,72.0,29.85,South,173,6.0,7.0,78,0.00,,,0.44,weatherlink.com 1.10,2013-07-07 18:19:00,
2013-07-07 14:34:00,79.3,73.0,29.85,SE,136,2.0,10.0,82,0.00,,,0.44,weatherlink.com 1.10,2013-07-07 18:34:00,
2013-07-07 14:49:00,78.7,72.0,29.85,South,184,1.0,7.0,81,0.00,,,0.44,weatherlink.com 1.10,2013-07-07 18:49:00,
2013-07-07 15:04:00,78.8,71.0,29.85,South,169,6.0,7.0,78,0.00,,,0.44,weatherlink.com 1.10,2013-07-07 19:04:00,
2013-07-07 15:19:00,79.1,72.0,29.85,SSW,205,4.0,7.0,78,0.00,,,0.44,weatherlink.com 1.10,2013-07-07 19:19:00,
2013-07-07 15:34:00,79.4,73.0,29.85,South,175,1.0,9.0,81,0.00,,,0.44,weatherlink.com 1.10,2013-07-07 19:34:00,
2013-07-07 15:49:00,79.7,72.0,29.84,SSW,197,4.0,7.0,77,0.00,,,0.44,weatherlink.com 1.10,2013-07-07 19:49:00,
2013-07-07 16:04:00,78.8,72.0,29.84,SSE,166,1.0,9.0,79,0.00,,,0.44,weatherlink.com 1.10,2013-07-07 20:04:00,
2013-07-07 16:19:00,80.0,72.0,29.84,South,182,4.0,8.0,77,0.00,,,0.44,weatherlink.com 1.10,2013-07-07 20:19:00,
2013-07-07 16:34:00,79.5,72.0,29.84,SSW,198,3.0,7.0,77,0.00,,,0.44,weatherlink.com 1.10,2013-07-07 20:34:00,
2013-07-07 16:49:00,78.6,71.0,29.84,South,169,3.0,6.0,77,0.00,,,0.44,weatherlink.com 1.10,2013-07-07 20:49:00,
2013-07-07 17:05:00,77.9,72.0,29.83,SSW,194,3.0,5.0,81,0.00,,,0.44,weatherlink.com 1.10,2013-07-07 21:05:00,
2013-07-07 17:20:00,78.4,72.0,29.82,SE,128,4.0,7.0,80,0.00,,,0.44,weatherlink.com 1.10,2013-07-07 21:20:00,
2013-07-07 17:35:00,75.8,69.0,29.82,SSE,159,5.0,10.0,78,0.00,,,0.44,weatherlink.com 1.10,2013-07-07 21:35:00,
2013-07-07 17:50:00,75.9,70.0,29.83,SSE,160,1.0,4.0,83,0.00,,,0.44,weatherlink.com 1.10,2013-07-07 21:50:00,
2013-07-07 18:05:00,77.6,72.0,29.82,SSE,148,2.0,3.0,83,0.00,,,0.44,weatherlink.com 1.10,2013-07-07 22:05:00,
2013-07-07 18:20:00,79.4,73.0,29.82,South,171,2.0,6.0,81,0.00,,,0.44,weatherlink.com 1.10,2013-07-07 22:20:00,
2013-07-07 18:35:00,79.6,73.0,29.82,South,180,2.0,6.0,80,0.00,,,0.44,weatherlink.com 1.10,2013-07-07 22:35:00,
2013-07-07 18:50:00,78.9,72.0,29.82,SW,220,2.0,6.0,80,0.00,,,0.44,weatherlink.com 1.10,2013-07-07 22:50:00,
2013-07-07 19:05:00,78.2,72.0,29.82,SSW,212,1.0,3.0,81,0.00,,,0.44,weatherlink.com 1.10,2013-07-07 23:05:00,
2013-07-07 19:20:00,77.8,73.0,29.82,SSW,212,0.0,1.0,84,0.00,,,0.44,weatherlink.com 1.10,2013-07-07 23:20:00,
2013-07-07 19:35:00,77.7,74.0,29.82,SSW,212,0.0,0.0,87,0.00,,,0.44,weatherlink.com 1.10,2013-07-07 23:35:00,
2013-07-07 19:50:00,77.1,73.0,29.83,SSW,212,0.0,0.0,88,0.00,,,0.44,weatherlink.com 1.10,2013-07-07 23:50:00,
2013-07-07 20:05:00,76.8,73.0,29.83,SSW,212,0.0,0.0,87,0.00,,,0.44,weatherlink.com 1.10,2013-07-08 00:05:00,
2013-07-07 20:20:00,76.4,72.0,29.83,SSW,212,0.0,0.0,86,0.00,,,0.44,weatherlink.com 1.10,2013-07-08 00:20:00,
2013-07-07 20:35:00,76.1,72.0,29.83,SSW,212,0.0,2.0,86,0.00,,,0.44,weatherlink.com 1.10,2013-07-08 00:35:00,
2013-07-07 20:50:00,75.7,72.0,29.83,SSW,212,0.0,2.0,87,0.00,,,0.44,weatherlink.com 1.10,2013-07-08 00:50:00,
2013-07-07 21:05:00,75.5,71.0,29.84,SSW,212,0.0,2.0,87,0.00,,,0.44,weatherlink.com 1.10,2013-07-08 01:05:00,
2013-07-07 21:20:00,74.9,72.0,29.84,SSW,212,0.0,2.0,89,0.00,,,0.44,weatherlink.com 1.10,2013-07-08 01:20:00,
2013-07-07 21:35:00,74.9,71.0,29.85,SE,132,1.0,3.0,87,0.00,,,0.44,weatherlink.com 1.10,2013-07-08 01:35:00,
2013-07-07 21:50:00,74.8,71.0,29.86,SE,128,0.0,2.0,87,0.00,,,0.44,weatherlink.com 1.10,2013-07-08 01:50:00,
2013-07-07 22:05:00,74.6,71.0,29.86,SE,140,0.0,1.0,87,0.00,,,0.44,weatherlink.com 1.10,2013-07-08 02:05:00,
2013-07-07 22:20:00,74.1,71.0,29.86,South,177,1.0,3.0,89,0.00,,,0.44,weatherlink.com 1.10,2013-07-08 02:20:00,
2013-07-07 22:35:00,73.8,71.0,29.87,South,175,0.0,3.0,90,0.00,,,0.44,weatherlink.com 1.10,2013-07-08 02:35:00,
2013-07-07 22:50:00,73.6,71.0,29.87,SSE,159,0.0,3.0,90,0.00,,,0.44,weatherlink.com 1.10,2013-07-08 02:50:00,
2013-07-07 23:05:00,73.2,71.0,29.87,SSE,158,1.0,3.0,91,0.00,,,0.44,weatherlink.com 1.10,2013-07-08 03:05:00,
2013-07-07 23:20:00,73.0,71.0,29.86,SSE,161,0.0,3.0,92,0.00,,,0.44,weatherlink.com 1.10,2013-07-08 03:20:00,
2013-07-07 23:35:00,72.9,71.0,29.85,SW,236,1.0,6.0,92,0.00,,,0.44,weatherlink.com 1.10,2013-07-08 03:35:00,
2013-07-07 23:50:00,73.2,71.0,29.85,SSW,211,1.0,9.0,91,0.00,,,0.44,weatherlink.com 1.10,2013-07-08 03:50:00,